Time,TemperatureF,DewpointF,PressureIn,WindDirection,WindDirectionDegrees,WindSpeedMPH,WindSpeedGustMPH,Humidity,HourlyPrecipIn,Conditions,Clouds,dailyrainin,SoftwareType,DateUTC
2013-11-04 00:09:00,49.0,37.0,30.14,East,101,4.0,7.0,64,0.00,,,0.00,weatherlink.com 1.10,2013-11-04 06:09:00,
2013-11-04 00:24:00,49.2,37.0,30.14,ESE,122,3.0,8.0,64,0.00,,,0.00,weatherlink.com 1.10,2013-11-04 06:24:00,
2013-11-04 00:39:00,49.1,37.0,30.14,East,90,3.0,7.0,64,0.00,,,0.00,weatherlink.com 1.10,2013-11-04 06:39:00,
2013-11-04 00:54:00,48.8,37.0,30.14,SE,146,7.0,9.0,65,0.00,,,0.00,weatherlink.com 1.10,2013-11-04 06:54:00,
2013-11-04 01:10:00,48.8,37.0,30.14,ESE,119,3.0,10.0,65,0.00,,,0.00,weatherlink.com 1.10,2013-11-04 07:10:00,
2013-11-04 01:24:00,48.7,38.0,30.13,SSE,150,2.0,10.0,66,0.00,,,0.00,weatherlink.com 1.10,2013-11-04 07:24:00,
2013-11-04 01:39:00,48.7,38.0,30.12,SE,136,14.0,14.0,66,0.00,,,0.00,weatherlink.com 1.10,2013-11-04 07:39:00,
2013-11-04 01:54:00,48.7,38.0,30.11,SE,138,6.0,12.0,66,0.00,,,0.00,weatherlink.com 1.10,2013-11-04 07:54:00,
2013-11-04 02:09:00,48.6,38.0,30.12,SE,134,3.0,10.0,67,0.00,,,0.00,weatherlink.com 1.10,2013-11-04 08:09:00,
2013-11-04 02:24:00,48.5,38.0,30.11,ESE,120,5.0,10.0,67,0.00,,,0.00,weatherlink.com 1.10,2013-11-04 08:24:00,
2013-11-04 02:39:00,48.3,38.0,30.12,ESE,122,6.0,9.0,68,0.00,,,0.00,weatherlink.com 1.10,2013-11-04 08:39:00,
2013-11-04 02:54:00,48.1,38.0,30.12,ESE,119,4.0,11.0,68,0.00,,,0.00,weatherlink.com 1.10,2013-11-04 08:54:00,
2013-11-04 03:09:00,48.0,38.0,30.12,ENE,73,8.0,11.0,69,0.00,,,0.00,weatherlink.com 1.10,2013-11-04 09:09:00,
2013-11-04 03:24:00,47.7,38.0,30.10,East,94,6.0,10.0,70,0.00,,,0.00,weatherlink.com 1.10,2013-11-04 09:24:00,
2013-11-04 03:39:00,47.6,38.0,30.10,ESE,117,6.0,12.0,70,0.00,,,0.00,weatherlink.com 1.10,2013-11-04 09:39:00,
2013-11-04 03:54:00,47.5,38.0,30.11,East,89,7.0,11.0,70,0.00,,,0.00,weatherlink.com 1.10,2013-11-04 09:54:00,
2013-11-04 04:09:00,47.5,39.0,30.11,ENE,76,3.0,9.0,71,0.00,,,0.00,weatherlink.com 1.10,2013-11-04 10:09:00,
2013-11-04 04:24:00,47.4,38.0,30.11,SE,134,2.0,10.0,71,0.00,,,0.00,weatherlink.com 1.10,2013-11-04 10:24:00,
2013-11-04 04:39:00,47.5,39.0,30.12,ENE,69,3.0,9.0,71,0.00,,,0.00,weatherlink.com 1.10,2013-11-04 10:39:00,
2013-11-04 04:54:00,47.5,39.0,30.13,ESE,108,3.0,8.0,72,0.00,,,0.00,weatherlink.com 1.10,2013-11-04 10:54:00,
2013-11-04 05:09:00,47.4,39.0,30.14,ESE,115,2.0,7.0,72,0.00,,,0.00,weatherlink.com 1.10,2013-11-04 11:09:00,
2013-11-04 05:24:00,47.3,39.0,30.13,SE,146,8.0,8.0,73,0.00,,,0.00,weatherlink.com 1.10,2013-11-04 11:24:00,
2013-11-04 05:39:00,47.3,39.0,30.13,East,79,4.0,10.0,73,0.00,,,0.00,weatherlink.com 1.10,2013-11-04 11:39:00,
2013-11-04 05:54:00,47.4,39.0,30.12,ESE,106,7.0,11.0,73,0.00,,,0.00,weatherlink.com 1.10,2013-11-04 11:54:00,
2013-11-04 06:09:00,47.1,39.0,30.11,ESE,103,4.0,7.0,74,0.00,,,0.00,weatherlink.com 1.10,2013-11-04 12:09:00,
2013-11-04 06:24:00,47.0,39.0,30.11,ESE,122,3.0,7.0,75,0.00,,,0.00,weatherlink.com 1.10,2013-11-04 12:24:00,
2013-11-04 06:39:00,46.9,39.0,30.12,SE,132,1.0,9.0,75,0.00,,,0.00,weatherlink.com 1.10,2013-11-04 12:39:00,
2013-11-04 06:54:00,46.8,40.0,30.12,East,91,1.0,9.0,76,0.00,,,0.00,weatherlink.com 1.10,2013-11-04 12:54:00,
2013-11-04 07:09:00,47.0,39.0,30.12,ESE,119,5.0,11.0,75,0.00,,,0.00,weatherlink.com 1.10,2013-11-04 13:09:00,
2013-11-04 07:24:00,47.2,40.0,30.12,ESE,103,10.0,12.0,75,0.00,,,0.00,weatherlink.com 1.10,2013-11-04 13:24:00,
2013-11-04 07:39:00,47.3,40.0,30.13,ESE,108,5.0,9.0,75,0.00,,,0.00,weatherlink.com 1.10,2013-11-04 13:39:00,
2013-11-04 07:54:00,47.5,40.0,30.13,East,101,8.0,11.0,74,0.00,,,0.00,weatherlink.com 1.10,2013-11-04 13:54:00,
2013-11-04 08:09:00,47.8,40.0,30.14,ESE,105,8.0,12.0,74,0.00,,,0.00,weatherlink.com 1.10,2013-11-04 14:09:00,
2013-11-04 08:24:00,48.0,40.0,30.13,East,99,7.0,12.0,73,0.00,,,0.00,weatherlink.com 1.10,2013-11-04 14:24:00,
2013-11-04 08:39:00,48.3,40.0,30.13,ENE,77,6.0,14.0,73,0.00,,,0.00,weatherlink.com 1.10,2013-11-04 14:39:00,
2013-11-04 08:54:00,49.0,40.0,30.13,SSE,152,7.0,13.0,72,0.00,,,0.00,weatherlink.com 1.10,2013-11-04 14:54:00,
2013-11-04 09:09:00,49.8,41.0,30.13,East,101,6.0,12.0,71,0.00,,,0.00,weatherlink.com 1.10,2013-11-04 15:09:00,
2013-11-04 09:24:00,49.9,40.0,30.13,SE,124,10.0,10.0,70,0.00,,,0.00,weatherlink.com 1.10,2013-11-04 15:24:00,
2013-11-04 09:39:00,50.3,41.0,30.13,SSW,201,1.0,9.0,70,0.00,,,0.00,weatherlink.com 1.10,2013-11-04 15:39:00,
2013-11-04 09:54:00,50.4,41.0,30.13,SE,138,5.0,10.0,71,0.00,,,0.00,weatherlink.com 1.10,2013-11-04 15:54:00,
2013-11-04 10:09:00,50.2,42.0,30.14,SSE,155,2.0,12.0,74,0.00,,,0.00,weatherlink.com 1.10,2013-11-04 16:09:00,
2013-11-04 10:24:00,50.5,41.0,30.14,SE,129,4.0,8.0,71,0.00,,,0.00,weatherlink.com 1.10,2013-11-04 16:24:00,
2013-11-04 10:39:00,51.1,42.0,30.12,SE,138,4.0,12.0,70,0.00,,,0.00,weatherlink.com 1.10,2013-11-04 16:39:00,
2013-11-04 10:54:00,51.6,42.0,30.13,ESE,113,9.0,11.0,69,0.00,,,0.00,weatherlink.com 1.10,2013-11-04 16:54:00,
2013-11-04 11:09:00,51.9,42.0,30.14,East,84,3.0,7.0,70,0.00,,,0.00,weatherlink.com 1.10,2013-11-04 17:09:00,
2013-11-04 11:24:00,52.1,42.0,30.13,East,101,7.0,8.0,69,0.00,,,0.00,weatherlink.com 1.10,2013-11-04 17:24:00,
2013-11-04 11:40:00,52.4,43.0,30.12,West,269,2.0,10.0,70,0.00,,,0.00,weatherlink.com 1.10,2013-11-04 17:40:00,
2013-11-04 11:55:00,52.8,43.0,30.12,ESE,113,2.0,9.0,69,0.00,,,0.00,weatherlink.com 1.10,2013-11-04 17:55:00,
2013-11-04 12:10:00,53.3,43.0,30.10,East,85,5.0,9.0,69,0.00,,,0.00,weatherlink.com 1.10,2013-11-04 18:10:00,
2013-11-04 12:25:00,53.9,44.0,30.10,SE,127,6.0,11.0,70,0.00,,,0.00,weatherlink.com 1.10,2013-11-04 18:25:00,
2013-11-04 12:40:00,54.8,44.0,30.11,East,91,3.0,7.0,68,0.00,,,0.00,weatherlink.com 1.10,2013-11-04 18:40:00,
2013-11-04 13:10:00,55.1,45.0,30.10,East,91,3.0,7.0,68,0.00,,,0.00,weatherlink.com 1.10,2013-11-04 19:10:00,
2013-11-04 13:25:00,55.0,45.0,30.08,SSE,159,1.0,7.0,68,0.00,,,0.00,weatherlink.com 1.10,2013-11-04 19:25:00,
2013-11-04 13:40:00,55.7,45.0,30.08,ESE,105,0.0,5.0,68,0.00,,,0.00,weatherlink.com 1.10,2013-11-04 19:40:00,
2013-11-04 13:55:00,58.7,46.0,30.08,SE,133,4.0,8.0,64,0.00,,,0.00,weatherlink.com 1.10,2013-11-04 19:55:00,
2013-11-04 14:10:00,59.9,47.0,30.08,East,86,3.0,9.0,62,0.00,,,0.00,weatherlink.com 1.10,2013-11-04 20:10:00,
2013-11-04 14:25:00,60.2,47.0,30.07,SW,215,4.0,10.0,62,0.00,,,0.00,weatherlink.com 1.10,2013-11-04 20:25:00,
2013-11-04 14:40:00,60.1,46.0,30.07,SW,226,7.0,11.0,60,0.00,,,0.00,weatherlink.com 1.10,2013-11-04 20:40:00,
2013-11-04 14:55:00,60.5,46.0,30.07,ESE,110,3.0,9.0,60,0.00,,,0.00,weatherlink.com 1.10,2013-11-04 20:55:00,
2013-11-04 15:10:00,59.8,47.0,30.07,East,95,2.0,8.0,62,0.00,,,0.00,weatherlink.com 1.10,2013-11-04 21:10:00,
2013-11-04 15:25:00,59.3,46.0,30.08,East,97,2.0,7.0,62,0.00,,,0.00,weatherlink.com 1.10,2013-11-04 21:25:00,
2013-11-04 15:40:00,59.6,46.0,30.08,East,89,2.0,12.0,62,0.00,,,0.00,weatherlink.com 1.10,2013-11-04 21:40:00,
2013-11-04 15:55:00,60.0,47.0,30.09,SSE,149,2.0,7.0,62,0.00,,,0.00,weatherlink.com 1.10,2013-11-04 21:55:00,
2013-11-04 16:10:00,59.8,46.0,30.09,SSW,200,1.0,8.0,61,0.00,,,0.00,weatherlink.com 1.10,2013-11-04 22:10:00,
2013-11-04 16:25:00,58.7,46.0,30.09,SSE,153,2.0,4.0,63,0.00,,,0.00,weatherlink.com 1.10,2013-11-04 22:25:00,
2013-11-04 16:40:00,57.9,46.0,30.09,SW,228,1.0,5.0,64,0.00,,,0.00,weatherlink.com 1.10,2013-11-04 22:40:00,
2013-11-04 16:55:00,57.2,45.0,30.10,East,100,1.0,4.0,65,0.00,,,0.00,weatherlink.com 1.10,2013-11-04 22:55:00,
2013-11-04 17:10:00,56.5,45.0,30.11,SE,138,1.0,2.0,65,0.00,,,0.00,weatherlink.com 1.10,2013-11-04 23:10:00,
2013-11-04 17:25:00,55.4,45.0,30.11,SSW,205,2.0,5.0,68,0.00,,,0.00,weatherlink.com 1.10,2013-11-04 23:25:00,
2013-11-04 17:40:00,55.0,45.0,30.12,ESE,118,0.0,2.0,68,0.00,,,0.00,weatherlink.com 1.10,2013-11-04 23:40:00,
2013-11-04 17:56:00,54.4,45.0,30.13,ESE,109,0.0,3.0,70,0.00,,,0.00,weatherlink.com 1.10,2013-11-04 23:56:00,
2013-11-04 18:10:00,54.4,46.0,30.14,WSW,252,0.0,2.0,72,0.00,,,0.00,weatherlink.com 1.10,2013-11-05 00:10:00,
2013-11-04 18:25:00,54.4,46.0,30.14,South,180,0.0,3.0,72,0.00,,,0.00,weatherlink.com 1.10,2013-11-05 00:25:00,
2013-11-04 18:40:00,53.8,45.0,30.15,ENE,72,0.0,2.0,73,0.00,,,0.00,weatherlink.com 1.10,2013-11-05 00:40:00,
2013-11-04 18:55:00,53.9,46.0,30.15,SSW,198,0.0,4.0,74,0.00,,,0.00,weatherlink.com 1.10,2013-11-05 00:55:00,
2013-11-04 19:10:00,53.7,46.0,30.15,SW,222,1.0,3.0,75,0.00,,,0.00,weatherlink.com 1.10,2013-11-05 01:10:00,
2013-11-04 19:25:00,53.6,46.0,30.15,SW,214,3.0,5.0,75,0.00,,,0.00,weatherlink.com 1.10,2013-11-05 01:25:00,
2013-11-04 19:40:00,53.8,46.0,30.16,South,184,0.0,4.0,75,0.00,,,0.00,weatherlink.com 1.10,2013-11-05 01:40:00,
2013-11-04 19:55:00,53.6,46.0,30.15,East,84,1.0,3.0,75,0.00,,,0.00,weatherlink.com 1.10,2013-11-05 01:55:00,
2013-11-04 20:10:00,53.0,46.0,30.16,NW,311,0.0,4.0,77,0.00,,,0.00,weatherlink.com 1.10,2013-11-05 02:10:00,
2013-11-04 20:25:00,52.7,46.0,30.16,ENE,58,0.0,3.0,77,0.00,,,0.00,weatherlink.com 1.10,2013-11-05 02:25:00,
2013-11-04 20:40:00,52.2,46.0,30.16,WSW,257,0.0,2.0,78,0.00,,,0.00,weatherlink.com 1.10,2013-11-05 02:40:00,
2013-11-04 20:55:00,51.6,46.0,30.17,ENE,74,1.0,2.0,80,0.00,,,0.00,weatherlink.com 1.10,2013-11-05 02:55:00,
2013-11-04 21:10:00,51.8,46.0,30.18,SW,216,0.0,1.0,80,0.00,,,0.00,weatherlink.com 1.10,2013-11-05 03:10:00,
2013-11-04 21:25:00,52.8,46.0,30.17,SE,138,2.0,3.0,79,0.00,,,0.00,weatherlink.com 1.10,2013-11-05 03:25:00,
2013-11-04 21:40:00,53.4,47.0,30.18,East,84,0.0,4.0,78,0.00,,,0.00,weatherlink.com 1.10,2013-11-05 03:40:00,
2013-11-04 21:55:00,53.9,47.0,30.18,ESE,113,0.0,2.0,78,0.00,,,0.00,weatherlink.com 1.10,2013-11-05 03:55:00,
2013-11-04 22:10:00,54.2,47.0,30.18,SSE,163,0.0,2.0,77,0.00,,,0.00,weatherlink.com 1.10,2013-11-05 04:10:00,
2013-11-04 22:26:00,54.2,47.0,30.18,South,174,0.0,2.0,78,0.00,,,0.00,weatherlink.com 1.10,2013-11-05 04:26:00,
2013-11-04 22:41:00,54.2,47.0,30.18,SSE,168,0.0,3.0,78,0.00,,,0.00,weatherlink.com 1.10,2013-11-05 04:41:00,
2013-11-04 22:56:00,54.3,48.0,30.18,West,273,0.0,2.0,78,0.00,,,0.00,weatherlink.com 1.10,2013-11-05 04:56:00,
2013-11-04 23:11:00,54.4,48.0,30.18,SE,145,2.0,3.0,78,0.00,,,0.00,weatherlink.com 1.10,2013-11-05 05:11:00,
2013-11-04 23:26:00,54.5,48.0,30.19,SE,127,0.0,2.0,78,0.00,,,0.00,weatherlink.com 1.10,2013-11-05 05:26:00,
2013-11-04 23:41:00,54.5,48.0,30.20,NNW,333,0.0,1.0,79,0.00,,,0.00,weatherlink.com 1.10,2013-11-05 05:41:00,
2013-11-04 23:56:00,54.4,48.0,30.20,WSW,244,0.0,3.0,79,0.00,,,0.00,weatherlink.com 1.10,2013-11-05 05:56:00,